Temp_Advection
nan nan nan nan nan nan nan nan nan nan nan nan nan nan nan nan nan nan nan nan nan nan nan nan nan nan nan nan nan nan nan nan nan nan nan nan nan nan nan nan nan nan nan nan nan nan nan nan nan nan nan nan nan nan nan nan nan nan nan nan nan nan nan nan nan nan nan nan nan
nan 0 0 -0 -0 -0 -0 1 2 2 1 -0 -0 -0 0 0 0 0 0 0 0 0 0 0 0 -0 -0 -0 -0 0 0 0 0 -0 -0 -0 -0 0 0 0 0 0 0 0 0 -0 -0 -0 -0 0 1 1 0 0 0 0 0 0 0 0 0 -0 -0 -0 -0 -0 0 0 nan
nan 0 -0 -0 -0 0 1 2 1 0 -0 -0 0 0 0 0 0 0 -0 -0 -0 -0 0 0 -0 -0 -0 -0 -0 0 0 0 0 0 -0 0 0 0 0 0 0 0 -0 -0 -0 -0 -0 -0 0 1 1 0 0 0 0 0 0 0 0 0 -0 -0 -0 -0 -0 0 0 0 nan
nan -0 -0 -0 -0 0 1 1 0 -0 -0 0 0 0 -0 -0 -0 -0 -0 -0 -0 -0 -0 -0 -0 -0 -0 -0 -0 -0 0 0 0 -0 -0 0 0 0 0 0 0 0 0 0 -0 -0 -0 0 1 1 0 -0 -0 0 0 0 -0 -0 0 -0 -0 -0 -0 -0 0 0 0 0 nan
nan -0 -0 -0 0 1 1 0 -0 0 0 0 -0 -1 -0 -0 -1 -0 -0 -0 -0 -0 -0 -0 -0 -0 -0 0 0 -0 -0 0 0 -0 0 0 0 0 0 0 0 -0 -0 0 0 0 0 1 1 0 0 -0 0 1 0 -0 -0 0 0 -0 -0 -0 0 0 0 0 0 0 nan
nan -0 -0 -0 0 0 0 0 0 0 0 -0 -1 0 0 -1 -1 -0 -0 -0 -0 -0 -0 -0 -0 -0 -0 0 0 0 -0 -0 -0 0 0 0 0 0 0 0 -0 -0 0 0 0 0 1 0 0 0 -0 0 0 -0 -0 -0 0 0 -0 -0 -0 0 0 0 0 0 0 0 nan
nan -0 -0 -0 0 0 1 1 1 0 -0 -0 0 0 -0 -1 -0 -0 -0 -0 -0 -0 -0 -0 0 -0 -0 0 0 0 -0 -0 -0 0 0 0 0 0 0 -0 -0 0 0 0 0 0 0 0 -0 -0 -0 -0 -0 -0 -0 -0 0 -0 -0 -0 0 0 0 0 0 0 0 0 nan
nan 0 0 0 0 1 1 1 0 -0 -0 -0 -0 -1 -0 -0 -0 -0 -0 -0 0 0 0 0 0 -0 0 0 0 0 -0 -0 -0 0 1 0 0 -0 -0 -0 -0 0 0 1 0 0 0 0 0 0 0 -0 -0 -0 -0 0 -0 0 0 0 0 1 1 0 0 0 -0 -0 nan
nan 0 0 0 1 1 1 0 -0 -0 -1 -1 -1 -0 -0 -0 -0 -0 -0 0 1 1 1 0 0 0 0 0 0 0 -0 -0 -0 0 0 0 0 -0 -0 0 0 1 1 0 0 0 0 0 0 0 0 0 0 0 0 0 0 0 1 1 1 0 0 0 -0 -0 -0 -0 nan
nan 0 0 0 1 1 0 -0 -0 -1 -1 -0 0 0 -0 -1 -0 -0 0 1 1 1 1 0 0 0 0 0 0 0 -0 -0 0 0 0 0 0 0 0 0 1 1 1 0 0 0 0 0 0 0 0 0 0 0 0 0 0 0 0 0 0 0 -0 -0 -0 -0 -0 -0 nan
nan 0 0 0 1 0 -0 -0 -0 -0 -0 0 0 -0 -0 -0 0 0 1 1 1 0 0 0 0 0 0 0 0 -0 -0 0 0 0 0 0 0 0 0 1 1 1 0 0 1 0 0 0 0 0 0 0 0 0 0 0 0 0 0 0 0 0 -0 -0 -0 -0 -0 -0 nan
nan 0 0 0 0 0 -0 -0 -0 -0 0 1 0 -0 -0 0 1 1 1 1 0 0 0 0 1 1 0 0 0 0 0 0 0 0 0 0 0 0 0 1 1 1 1 1 1 1 1 1 1 0 0 0 0 0 0 0 0 0 0 0 -0 -0 -0 -0 -0 -0 -0 -0 nan
nan 0 0 0 0 0 -0 -0 0 0 1 0 -0 -0 0 1 1 1 1 0 0 0 0 1 1 1 0 0 1 1 1 1 0 0 0 0 0 0 0 0 1 1 1 1 1 1 1 1 1 0 0 0 0 0 0 0 0 0 0 0 -0 -0 -0 -0 -0 -0 -0 -0 nan
nan 0 0 0 0 0 -0 0 1 1 0 0 0 0 1 1 1 0 0 0 0 0 0 0 0 0 0 1 1 1 1 0 0 0 0 0 0 0 0 0 1 1 1 0 0 0 1 1 1 0 0 0 0 0 0 0 0 0 0 -0 -0 -0 -0 -0 0 0 0 0 nan
nan 0 0 0 0 0 0 1 1 1 0 0 -0 0 1 1 0 -0 -0 0 0 0 0 0 0 0 1 1 1 0 0 0 0 0 0 0 0 0 0 0 0 1 1 0 0 0 0 0 0 0 0 0 0 0 -0 -0 -0 -0 -0 0 -0 -0 0 0 0 0 -0 -0 nan
nan 1 1 1 1 1 1 1 1 0 0 -0 -0 0 0 -0 -1 -1 -0 -0 -0 -0 0 -0 -0 0 0 0 0 0 0 0 0 0 0 1 1 1 1 1 1 1 0 0 0 0 0 0 0 0 0 0 -0 -0 -0 -0 -0 -0 -0 0 0 0 0 0 0 0 -0 -0 nan
nan 1 1 1 1 1 1 1 1 0 0 0 0 0 0 -0 -0 0 0 0 0 0 0 0 0 0 1 1 0 1 1 1 1 1 1 1 1 1 1 1 1 0 0 0 0 0 0 0 0 0 0 -0 -0 -0 -0 -0 -0 -0 0 0 0 0 0 0 0 0 0 0 nan
nan 1 1 0 0 0 0 1 1 1 1 1 1 1 1 2 2 2 1 1 1 1 1 1 1 1 1 1 1 1 1 1 1 1 1 1 1 1 1 0 0 0 0 0 0 0 0 0 0 0 0 -0 -0 -0 -0 -0 -0 -0 0 0 0 0 0 0 0 0 0 0 nan
nan 0 0 0 0 0 1 1 1 1 1 1 2 2 2 3 3 3 2 2 2 2 2 2 2 2 1 1 1 1 1 1 1 0 0 0 0 0 0 0 0 0 0 -0 -0 -0 -0 0 0 0 -0 -0 -0 -0 -0 -0 -0 0 0 0 0 0 -0 -0 -0 -0 0 0 nan
nan 1 1 1 0 1 1 1 1 1 1 1 1 2 2 2 2 2 2 2 2 2 2 1 1 1 1 1 0 0 0 0 0 0 0 0 0 0 -0 0 0 -0 -0 -0 -0 -0 0 0 0 0 -0 -0 -0 -0 -0 -0 -0 -0 0 0 -0 -0 -0 -0 -0 -0 -0 -0 nan
nan 0 0 0 1 1 1 1 1 1 1 1 1 1 1 1 1 1 1 1 1 1 1 0 0 0 0 0 0 0 0 0 0 0 0 0 0 0 0 0 -0 -0 -0 -0 -0 -0 0 0 0 0 0 0 0 -0 -0 -0 -0 -0 -0 -0 -0 -0 -0 -0 -0 -0 -0 -0 nan
nan 0 0 0 1 1 1 1 1 1 1 0 0 0 0 0 0 0 0 0 0 0 0 0 0 0 0 0 0 0 0 0 0 0 0 0 0 0 0 0 0 -0 -0 -0 -0 -0 -0 -0 0 0 0 0 0 -0 -0 -0 -0 -0 -0 0 -0 -0 -0 -0 -0 -0 -0 -0 nan
nan 1 1 1 1 1 0 0 0 0 0 0 0 0 0 0 0 0 0 0 0 0 0 0 0 0 0 0 0 0 0 0 0 0 0 0 0 0 0 0 0 0 -0 -0 -0 -0 -0 0 0 0 0 0 0 -0 -0 -0 -0 0 0 0 -0 -0 -0 -0 -0 -1 -0 -0 nan
nan 1 1 2 2 1 1 1 0 0 0 0 1 1 1 0 0 0 0 0 0 0 0 0 0 0 0 0 0 0 0 0 0 -0 -0 -0 -0 -0 -0 -0 0 -0 -0 -0 -0 -0 0 0 0 0 0 0 -0 -0 -0 -0 -0 -0 -0 -0 -0 -0 -0 -0 -0 -0 -0 -0 nan
nan 1 1 1 2 2 2 1 1 1 0 0 1 1 1 1 1 0 0 0 -0 -0 -0 0 0 0 0 0 0 0 0 0 0 -0 -0 0 0 0 -0 -0 -0 -0 -0 -0 0 0 0 0 0 0 -0 -0 -0 -0 -0 -0 -0 -0 -0 -0 -0 -0 -0 -0 -0 -0 -0 -0 nan
nan 1 1 1 1 1 2 2 1 1 0 0 0 1 1 1 1 0 -0 -0 -0 -0 0 0 0 0 0 0 0 0 0 0 0 0 0 0 0 -0 -0 -0 -0 -0 -0 -0 -0 -0 -0 -0 -0 -0 -0 -0 -0 -0 -0 -0 -0 -0 -0 -0 -0 -0 -0 -0 -0 -0 -1 -1 nan
nan 1 0 0 -0 0 1 1 1 1 1 0 0 0 0 0 0 0 0 0 -0 -0 0 0 0 0 0 0 0 0 0 0 0 -0 -0 -0 -0 -0 -0 -0 -0 -0 -0 -0 -0 -1 -1 -0 -1 -1 -1 -1 -1 -1 -0 -0 -0 -0 -0 -0 -0 -0 -0 -0 -1 -1 -1 -1 nan
nan 0 0 0 0 -0 0 1 1 1 0 0 0 0 0 0 0 0 0 0 -0 -0 -0 0 0 0 0 0 0 0 0 0 -0 -0 -0 -0 -0 -0 -1 -1 -1 -1 -0 -0 -1 -1 -1 -1 -1 -1 -1 -1 -1 -1 -1 -1 -0 -1 -1 -1 -1 -1 -1 -1 -1 -1 -1 -1 nan
nan -0 0 0 0 -0 0 1 1 0 0 0 0 0 0 0 0 0 0 0 0 0 0 0 0 0 0 0 0 0 0 0 0 -0 -0 -0 -0 -0 -0 -0 -0 -0 -0 -0 -1 -1 -1 -1 -1 -1 -1 -1 -1 -1 -1 -1 -1 -1 -1 -1 -1 -1 -1 -1 -1 -1 -1 -0 nan
nan -0 0 0 -0 0 0 0 0 0 0 0 0 0 0 0 0 0 0 0 0 0 0 0 0 0 0 0 0 0 0 0 0 0 0 0 0 0 0 -0 -0 -0 -0 -1 -1 -1 -1 -1 -1 -1 -1 -1 -1 -1 -1 -1 -2 -2 -2 -1 -1 -1 -1 -1 -0 -0 -0 -0 nan
nan 0 0 0 0 -0 0 0 0 0 0 0 0 0 0 0 0 0 0 0 0 0 -0 0 0 0 0 0 0 0 0 0 -0 -0 -0 0 0 0 -0 -0 -0 -0 -0 -0 -0 -1 -1 -1 -1 -1 -1 -1 -1 -2 -2 -2 -2 -2 -1 -1 -1 -1 -0 -0 -0 -0 -0 -0 nan
nan 1 1 0 0 0 0 0 0 0 0 0 0 0 0 0 0 0 0 0 -0 -0 -0 0 0 0 -0 -0 -0 -0 -0 -0 -0 -0 -0 -0 -0 0 -0 -0 -1 -0 0 0 -0 -0 -1 -1 -2 -2 -2 -1 -2 -2 -2 -1 -1 -1 -1 -1 -0 -0 -0 -0 -0 -0 -0 -0 nan
nan 1 1 0 0 0 0 0 -0 0 0 0 0 0 0 0 0 -0 -0 -0 -0 -0 0 0 0 0 -0 -0 -0 -0 -0 -0 -0 -0 -0 -0 0 0 0 -0 -0 -0 -0 -0 -0 -1 -1 -1 -2 -2 -1 -1 -1 -1 -1 -1 -1 -1 -0 -0 -0 -0 -0 -0 -0 -0 -0 -0 nan
nan 0 0 0 0 0 -0 -0 -0 -0 0 0 0 0 0 0 0 -0 -0 -0 -0 0 0 0 0 -0 -0 -0 -0 -0 -0 -0 -0 -0 0 0 0 0 0 0 -0 -1 -1 -1 -1 -1 -1 -1 -1 -1 -1 -1 -1 -1 -0 -0 -0 -0 -0 -0 -0 -0 -0 -0 -0 -0 -0 -0 nan
nan 0 0 0 0 -0 -0 -0 -0 -0 0 0 0 -0 -0 0 0 -0 -0 -0 0 0 0 0 0 0 0 0 0 0 0 0 0 0 0 0 0 0 0 -0 -1 -1 -1 -0 -0 -0 -0 -0 -0 -0 -0 -0 -0 -0 -0 -0 -0 -0 -0 -0 -0 -0 -0 -0 -0 -0 -0 -0 nan
nan 0 0 0 0 -0 -0 -0 -0 0 0 0 0 -0 -0 0 0 -0 -0 -0 0 0 0 0 0 0 0 0 0 0 0 0 0 0 0 0 0 0 0 -0 -1 -1 -0 -0 -0 -0 -0 0 0 0 -0 -0 -0 -0 -0 -0 0 0 0 0 0 0 0 -0 -0 -0 -0 -0 nan
nan 0 0 0 0 -0 -0 -0 0 0 0 0 0 -0 0 0 0 0 -0 -0 0 0 0 -0 -0 -0 -0 -0 -0 -0 -0 -0 0 0 0 0 0 0 0 -0 -1 -1 -0 -0 -0 -0 -0 -0 -0 -0 -0 -0 -0 -0 0 0 0 0 0 0 0 0 0 0 0 0 -0 -0 nan
nan 0 0 0 0 -0 -0 -0 0 0 0 0 0 0 0 0 0 -0 -0 -0 -0 -0 -0 -0 -0 -0 -0 -0 -0 -0 -0 -0 -0 0 0 0 0 0 0 -0 -0 -1 -0 -0 -0 -0 -0 -0 -0 -0 -1 -0 -0 -0 -0 0 0 0 0 0 0 0 0 0 0 0 0 -0 nan
nan 0 0 0 0 -0 0 0 0 0 0 -0 -0 -0 -0 -0 -0 -0 -0 -0 -0 -0 -0 -0 -0 -0 -0 -0 -0 -0 -0 -0 -0 -0 0 0 0 0 0 0 -0 -1 -1 -0 -0 -0 -0 -0 -0 -1 -1 -1 -0 -0 -0 0 0 0 0 0 0 0 0 0 0 0 0 0 nan
nan 0 0 0 0 0 0 0 0 -0 -0 -0 -0 -0 -0 -0 -0 -0 -0 -0 -0 -0 -0 -0 -0 -0 -0 -0 -0 -0 -0 -0 -0 -0 -0 0 0 0 0 0 0 -0 -1 -1 -0 -0 -0 -0 -0 -0 -1 -1 -0 -0 -0 0 0 0 0 0 0 0 0 0 0 0 0 0 nan
nan nan nan nan nan nan nan nan nan nan nan nan nan nan nan nan nan nan nan nan nan nan nan nan nan nan nan nan nan nan nan nan nan nan nan nan nan nan nan nan nan nan nan nan nan nan nan nan nan nan nan nan nan nan nan nan nan nan nan nan nan nan nan nan nan nan nan nan nan
Wind_Speed
14 14 13 13 14 14 14 14 14 14 14 14 14 13 12 13 13 13 12 13 14 14 13 11 9 10 11 12 14 15 15 14 15 15 15 15 16 16 16 14 13 12 12 12 13 13 13 13 13 14 14 14 13 12 11 11 11 11 11 11 11 12 12 13 13 14 14 14 15
14 14 14 13 13 14 14 13 13 12 13 14 14 12 11 11 13 14 14 14 15 14 13 12 10 10 10 11 13 15 16 16 15 15 16 16 17 17 17 16 15 14 14 14 14 14 15 15 16 16 15 14 13 12 12 12 11 10 9 8 9 9 10 11 12 13 13 14 14
16 15 14 13 13 13 13 12 11 12 13 14 13 11 10 11 14 15 15 15 14 14 14 13 12 11 10 10 11 13 14 15 15 15 15 16 16 17 17 17 17 16 16 15 16 16 16 17 17 16 14 12 11 12 13 12 11 10 9 9 9 10 10 11 11 12 13 13 14
18 16 15 13 13 12 11 11 13 15 15 13 11 10 11 13 15 17 17 16 15 14 14 14 14 13 11 10 9 10 11 13 14 15 15 15 15 15 16 16 16 16 16 16 16 17 17 17 16 14 12 10 11 12 13 13 13 12 12 11 10 11 11 11 11 12 12 13 13
19 17 15 14 13 12 13 15 17 17 14 12 11 12 13 14 16 18 19 18 16 15 14 14 14 13 12 10 9 9 10 11 13 14 15 15 15 15 15 15 15 15 15 15 15 16 16 15 13 12 11 11 12 13 13 13 13 13 12 11 11 11 12 12 12 12 12 12 12
19 17 16 15 14 14 16 17 17 15 13 13 15 16 15 15 16 18 20 19 18 17 15 14 13 13 12 11 10 9 9 10 11 13 14 15 15 15 15 15 15 15 15 15 15 14 13 12 11 11 12 12 13 13 12 12 13 12 12 12 12 12 12 12 11 11 10 10 10
18 17 16 15 15 16 16 16 14 14 14 16 17 17 15 14 14 16 18 20 19 18 16 15 13 12 12 11 10 9 9 9 10 12 13 14 15 15 16 16 16 15 15 15 14 13 12 12 11 11 12 12 12 11 11 12 12 12 12 12 12 12 11 11 10 9 9 8 8
17 16 15 15 15 16 15 15 15 16 17 17 16 15 14 12 11 13 16 19 20 19 17 15 13 12 12 11 10 9 9 9 9 11 13 15 16 16 16 16 16 15 15 14 14 13 12 12 11 10 10 10 10 10 10 11 11 12 11 11 11 10 10 9 8 7 7 8 8
15 15 14 14 15 15 15 16 17 17 17 16 15 15 14 13 11 11 14 17 19 19 17 14 12 12 12 11 10 9 8 8 9 10 12 14 15 15 16 16 16 16 15 15 14 13 12 12 11 10 10 9 9 9 10 10 10 10 10 9 9 8 8 7 7 7 7 8 8
15 14 14 14 14 15 16 17 17 17 16 16 16 16 17 15 13 13 14 17 18 17 15 12 12 12 11 11 10 9 9 9 10 10 12 13 13 14 15 16 16 16 16 16 15 14 13 12 12 11 11 10 10 10 9 10 10 9 8 7 7 6 7 7 7 7 8 8 8
15 14 14 14 15 16 17 17 17 16 16 16 17 18 18 16 14 14 15 17 17 15 13 12 12 11 11 10 10 10 10 10 11 11 12 13 13 14 15 16 16 16 16 15 14 13 13 12 11 11 10 10 10 9 9 9 9 8 7 6 6 6 6 7 7 8 8 8 9
16 16 16 16 16 17 17 17 16 16 16 17 19 19 17 15 14 15 15 16 14 12 12 12 12 11 11 12 12 12 12 11 11 11 12 12 13 14 15 15 15 14 13 13 12 12 11 10 9 9 8 9 9 8 8 7 6 6 5 5 6 6 7 7 8 8 9 10 10
17 17 17 18 18 18 18 17 16 15 16 18 19 18 16 14 14 14 14 13 12 11 12 12 12 13 13 14 14 13 12 11 10 10 10 10 11 12 12 12 12 11 11 10 10 9 8 8 7 7 7 7 7 6 6 5 4 5 5 6 6 7 8 8 9 10 10 11 11
18 18 19 19 19 18 18 17 16 15 17 19 19 17 14 13 13 13 13 12 11 12 13 13 14 14 15 15 15 13 11 9 9 9 9 9 9 9 9 9 9 9 9 9 9 8 7 6 6 5 5 5 5 4 4 3 4 5 6 7 7 8 9 10 10 11 11 12 12
19 19 19 19 19 18 17 16 16 16 18 19 19 16 13 12 12 13 13 13 13 14 14 15 15 16 16 15 14 11 10 9 9 9 9 9 9 8 8 8 8 8 8 8 8 8 7 6 5 4 3 3 3 3 3 3 4 6 7 8 9 10 10 11 11 12 12 12 13
18 18 18 18 17 16 16 16 16 18 19 20 18 16 14 13 14 14 15 15 15 16 17 17 17 17 16 15 12 11 10 11 11 10 10 10 10 9 9 9 8 8 8 7 7 7 6 5 4 3 3 3 3 4 4 5 6 7 8 9 10 11 11 11 12 12 13 13 14
16 17 17 16 16 16 16 17 17 18 19 19 18 17 17 17 17 18 18 19 19 20 20 20 19 18 17 15 13 12 13 13 12 12 12 11 11 10 9 8 8 7 6 5 5 4 4 3 2 2 2 3 4 5 6 6 7 8 9 10 11 11 11 12 12 13 13 14 15
15 16 16 16 16 16 17 18 18 18 18 18 17 17 18 19 20 21 22 23 23 23 23 22 21 19 18 16 15 14 13 13 13 12 12 11 10 9 8 6 5 4 3 2 1 1 1 2 2 3 3 4 6 7 7 8 9 9 10 11 11 12 12 13 13 14 15 15 16
17 17 17 18 17 17 17 17 17 16 16 16 16 17 19 20 21 23 24 24 24 23 23 22 21 19 17 16 14 13 13 12 11 10 9 8 7 6 5 3 2 1 0 1 1 2 2 3 3 4 5 6 7 8 9 9 10 10 11 11 12 13 13 14 15 15 16 16 17
19 19 19 18 17 16 15 15 16 16 16 16 17 19 20 21 21 22 22 22 21 21 20 20 19 17 16 14 13 12 10 9 8 7 6 5 4 3 3 2 1 1 1 1 1 2 2 3 4 6 7 8 9 9 10 10 11 11 12 12 13 14 15 15 16 16 17 17 18
20 19 18 17 16 15 15 16 17 18 18 19 20 21 21 21 21 21 20 19 18 18 17 17 16 15 14 12 10 9 7 6 5 5 4 3 3 2 2 1 0 0 1 1 2 3 4 5 6 7 8 9 10 11 11 11 12 12 13 13 14 15 16 16 16 17 17 18 18
18 17 16 16 16 16 17 18 19 20 20 21 22 22 22 21 20 19 18 17 16 16 15 14 13 12 11 9 8 7 6 5 5 4 4 3 3 2 1 1 1 2 3 3 4 5 6 7 8 9 9 10 11 11 12 12 13 13 14 15 15 16 16 16 16 16 17 17 18
15 15 16 17 18 19 20 20 20 21 21 22 22 21 21 19 18 17 15 14 13 12 12 11 10 10 9 8 7 6 6 5 5 4 3 3 2 2 2 2 2 3 4 5 5 6 7 8 9 10 11 11 11 12 12 13 14 14 15 15 15 15 15 15 15 16 16 16 17
14 15 16 19 21 21 21 21 20 20 20 20 20 19 18 17 15 13 12 11 11 10 10 10 10 9 8 7 7 6 5 4 4 3 2 2 2 2 2 2 3 4 5 6 7 8 9 10 10 11 11 12 12 13 13 14 14 14 14 14 14 14 14 15 15 15 15 15 15
14 15 17 20 22 22 22 21 20 19 18 17 16 16 15 14 13 12 11 11 10 10 10 10 10 9 8 7 6 5 4 3 2 1 1 2 2 2 3 4 5 6 7 8 9 9 10 10 11 11 12 12 13 13 13 13 13 13 13 14 14 14 14 15 15 15 14 14 14
15 16 18 19 21 21 21 20 19 18 17 16 15 14 14 14 13 12 11 11 11 10 9 9 8 8 7 6 5 4 3 2 1 1 2 3 3 4 4 5 7 8 9 9 10 10 10 11 11 12 12 12 13 13 13 13 13 13 13 14 14 14 14 14 14 13 13 12 12
16 17 18 18 19 19 19 19 18 17 16 16 15 14 14 14 14 13 11 10 10 9 8 8 7 7 6 5 5 3 2 1 1 1 3 4 5 6 6 7 8 8 8 9 10 10 11 11 11 11 11 12 12 12 12 13 13 13 13 14 14 14 13 13 12 11 11 10 9
18 18 18 18 18 18 18 18 17 16 15 15 14 14 14 13 12 11 10 9 8 8 7 7 6 6 5 5 4 3 2 0 1 2 3 4 5 6 7 8 7 7 7 8 9 9 10 10 10 10 10 10 11 11 12 12 13 13 13 13 13 12 11 10 9 8 7 7 7
18 17 17 17 17 17 17 16 15 15 14 14 13 13 12 11 10 9 9 8 7 7 6 5 5 4 4 3 3 2 1 1 1 1 2 3 3 4 4 4 4 4 5 6 7 7 8 8 8 9 9 10 10 11 12 12 12 12 12 11 11 9 8 7 6 5 5 5 6
17 16 16 16 16 16 15 14 14 13 13 12 12 11 10 9 9 8 7 7 6 6 5 5 4 4 3 3 2 1 1 1 1 1 1 1 1 1 1 0 1 2 4 5 5 6 7 8 8 9 10 10 11 11 12 12 12 11 10 9 8 7 7 6 5 5 5 5 6
16 15 15 15 14 14 13 12 12 11 11 11 10 9 8 8 7 7 6 5 5 5 4 4 4 3 3 2 2 1 1 1 1 1 1 1 1 1 2 4 3 1 2 3 5 6 7 9 10 10 11 11 11 12 12 12 11 10 9 8 7 7 7 6 6 6 6 6 7
14 14 13 13 13 13 12 11 10 10 9 9 8 7 7 6 6 5 5 5 5 5 5 4 3 3 2 2 2 2 2 2 2 1 1 1 1 1 2 4 4 2 2 3 5 6 8 9 10 11 11 12 12 12 12 11 10 9 9 8 7 7 7 7 8 8 8 9 9
12 11 11 11 11 11 10 10 9 8 8 7 6 6 5 5 5 5 5 5 5 5 5 4 3 3 3 2 2 2 2 1 1 1 1 0 0 1 2 3 2 2 4 5 6 7 8 9 11 11 12 12 12 11 11 10 10 9 9 8 8 8 8 8 9 9 10 10 11
11 10 9 9 9 9 9 9 8 7 7 6 6 6 5 5 6 6 6 6 5 4 4 3 3 2 2 2 2 1 1 1 0 0 1 1 1 1 2 1 3 5 7 7 7 8 9 10 11 11 11 11 11 10 10 9 9 9 9 8 8 8 9 9 10 10 11 11 11
10 9 9 9 9 9 9 8 8 7 6 6 6 6 6 6 6 6 5 5 5 4 4 3 3 2 2 2 1 1 1 1 1 1 1 1 1 1 2 2 5 8 8 6 6 7 8 9 10 11 11 11 10 9 9 8 8 8 8 8 9 9 9 10 10 10 10 10 10
10 9 9 9 9 9 8 8 7 7 6 6 6 6 5 5 5 5 5 5 4 4 4 3 3 3 3 2 2 2 2 2 1 1 2 2 2 2 3 4 8 10 8 5 4 5 6 8 9 10 11 11 10 9 8 8 8 8 9 9 9 9 9 9 9 9 9 9 9
11 10 9 9 9 8 8 8 7 6 5 5 5 5 5 4 4 4 4 4 4 4 3 3 3 3 3 3 3 3 2 2 2 2 2 2 2 3 4 7 10 12 10 6 5 6 7 8 9 10 11 11 10 9 9 8 8 8 8 8 8 8 8 8 8 8 8 9 9
11 10 9 8 8 8 7 7 6 5 5 5 5 4 4 4 4 4 4 4 4 3 3 3 4 4 4 3 3 3 3 3 2 2 2 3 3 4 5 8 11 12 11 8 6 7 9 10 11 11 11 11 10 10 9 8 8 8 8 7 7 7 6 7 7 7 8 8 9
10 9 8 8 7 7 6 6 5 5 5 5 5 5 4 4 4 4 4 4 4 4 4 4 4 4 4 4 4 4 4 3 3 3 3 3 3 4 6 8 10 10 10 7 6 6 8 9 11 12 12 11 11 10 9 9 9 8 7 6 6 6 6 6 7 7 8 8 9
9 9 8 7 7 6 6 5 5 6 6 6 6 6 6 6 6 6 5 5 5 5 5 5 5 6 6 6 6 6 5 4 4 3 3 3 3 4 5 7 8 8 7 6 5 5 6 7 8 10 11 11 11 10 10 9 8 8 7 7 6 6 6 6 7 8 8 9 9
9 8 8 7 7 7 6 7 7 7 7 7 7 7 7 7 7 7 7 6 6 6 7 7 8 8 8 8 8 8 7 6 5 5 4 4 4 4 5 6 6 6 4 4 5 5 4 5 5 7 10 11 10 10 9 9 8 8 8 7 7 7 7 7 8 8 9 9 10
Wind_Direction
222 227 231 236 240 244 244 242 236 231 229 228 229 228 225 221 213 205 198 198 200 201 202 209 225 238 244 247 248 247 241 231 225 224 226 228 229 228 227 225 221 218 219 220 217 214 212 213 212 210 205 198 193 193 197 200 199 199 203 210 217 224 229 233 237 240 244 247 250
216 220 226 232 237 241 241 239 233 229 227 226 225 223 219 214 205 198 195 198 200 200 203 211 224 239 248 249 249 248 243 235 227 223 223 224 224 224 223 222 219 216 214 213 211 210 210 210 209 205 199 193 190 194 200 202 198 199 204 214 224 232 237 240 242 244 247 250 253
210 214 220 227 233 237 237 232 224 221 223 225 224 224 222 214 204 197 195 198 201 204 207 212 219 227 238 246 249 248 245 239 232 228 225 223 223 223 223 222 219 216 212 210 209 208 208 208 207 202 197 192 194 201 206 207 207 212 221 232 242 247 248 249 249 251 253 255 257
208 211 215 221 227 229 223 214 213 217 220 220 218 221 223 219 209 203 200 200 202 205 210 215 218 220 225 234 243 248 247 242 237 232 229 225 223 223 223 222 220 215 211 208 208 208 208 208 206 202 199 198 203 208 211 212 216 222 231 241 250 253 253 253 254 255 257 258 260
207 209 212 215 220 218 212 208 213 216 216 210 210 215 221 223 215 208 203 201 201 204 210 217 221 223 223 227 233 241 246 246 242 237 232 228 224 223 223 223 221 218 215 212 210 210 210 209 207 205 205 208 211 213 215 220 227 233 239 247 252 254 254 254 255 257 259 261 264
206 209 212 214 215 214 212 212 215 214 209 206 212 218 223 223 216 209 205 203 203 205 209 215 222 226 229 228 229 234 241 245 245 241 236 231 227 226 226 227 227 225 222 220 216 214 211 209 208 208 210 212 213 215 220 229 239 246 251 252 252 253 253 254 256 258 262 265 270
206 209 212 215 216 215 214 214 213 211 209 210 215 221 224 221 214 208 205 205 206 207 209 213 220 228 233 234 232 233 236 240 241 240 237 233 230 229 229 230 230 228 224 221 217 214 211 210 210 211 212 214 216 220 228 239 249 254 255 252 251 251 251 253 257 262 267 273 283
207 210 213 215 216 215 212 210 210 211 212 213 214 216 218 217 215 211 209 207 208 208 208 210 217 227 235 239 239 239 239 239 238 236 233 231 231 231 230 230 229 227 223 219 215 212 211 212 214 216 218 220 224 230 238 245 250 252 251 249 250 251 254 258 266 275 286 296 304
205 209 212 214 215 212 209 208 211 212 212 210 208 207 209 211 216 219 216 211 208 206 205 207 213 223 232 238 242 243 243 243 241 236 230 227 229 230 230 229 227 225 222 220 218 217 217 219 221 223 225 227 231 237 243 247 250 250 250 251 255 262 270 280 292 301 308 312 312
204 208 211 212 212 211 210 211 212 212 210 208 207 206 206 206 214 222 221 212 205 202 202 205 210 217 226 233 238 240 241 242 240 235 229 225 226 227 228 227 226 223 219 217 217 218 220 223 225 226 227 227 231 237 243 247 251 253 255 261 269 280 292 299 305 309 309 307 302
205 208 211 212 213 213 214 215 214 213 212 213 214 211 206 204 214 222 218 206 198 197 201 204 206 209 215 223 228 230 231 232 231 229 226 224 224 225 225 224 221 217 212 209 208 211 216 220 223 225 226 228 231 235 240 245 250 255 260 268 277 286 293 296 298 298 297 294 292
207 209 212 214 215 217 218 219 219 219 221 222 219 211 204 206 217 220 210 195 191 194 200 202 201 201 205 211 214 216 216 218 220 221 222 222 222 221 220 218 215 211 206 203 202 204 208 213 217 221 224 227 229 232 236 243 251 259 266 273 281 286 288 290 291 290 289 288 287
210 212 214 216 218 219 220 222 224 228 230 227 216 206 202 210 217 210 196 185 187 194 197 195 193 193 197 201 201 201 201 204 208 213 218 221 221 218 214 211 210 208 206 203 199 197 199 203 209 214 219 223 224 228 234 245 260 271 277 281 285 287 288 288 287 286 285 285 285
212 214 216 218 219 220 221 223 227 231 231 224 210 202 201 209 207 196 185 182 188 192 191 187 185 186 189 191 190 189 191 197 203 209 215 219 221 219 214 210 207 206 205 202 197 192 188 189 195 204 214 222 227 231 241 259 275 282 284 284 284 285 285 284 284 283 284 284 285
213 215 217 218 219 220 221 223 226 227 224 216 207 201 201 203 196 188 183 184 187 187 184 181 180 181 183 183 182 184 192 201 206 209 212 215 219 219 217 212 207 203 202 201 200 197 192 187 189 196 212 232 245 256 266 278 282 282 281 281 281 281 281 281 282 283 284 285 285
212 214 215 216 216 216 217 218 220 219 214 208 203 202 201 199 193 188 186 186 185 182 179 178 179 180 180 180 182 188 195 199 201 202 202 205 207 209 209 207 202 199 197 198 201 204 204 202 199 204 221 251 269 277 281 281 279 277 276 276 277 279 280 281 282 283 284 285 285
208 209 209 209 209 209 209 209 210 208 204 201 199 200 200 197 192 188 185 183 182 180 178 177 179 180 180 180 183 186 188 189 188 188 187 188 190 191 193 193 191 190 191 194 201 208 217 226 235 248 263 271 276 278 277 274 272 272 273 275 277 278 280 282 283 284 285 285 285
198 199 199 198 198 199 200 200 199 197 195 193 193 194 194 191 186 182 179 177 177 176 176 174 175 177 177 176 176 177 177 176 176 175 175 174 174 174 174 175 176 178 185 198 221 260 294 307 306 296 286 278 275 272 271 270 271 273 275 277 279 281 282 283 285 286 286 287 287
187 187 187 187 188 189 189 188 186 184 181 179 178 178 178 177 175 173 171 170 169 170 170 169 168 168 167 166 166 166 165 164 164 164 163 159 155 150 146 141 140 135 96 9 354 343 334 319 302 287 278 274 272 272 273 274 276 278 280 282 283 285 286 287 288 288 289 290 291
177 176 176 176 176 176 175 173 169 165 161 159 160 160 161 161 161 161 160 160 161 161 162 160 158 157 156 156 156 156 154 151 148 144 139 132 123 115 108 101 90 66 35 7 346 327 304 289 280 277 275 275 276 277 278 280 282 284 286 287 288 289 290 291 292 292 293 294 295
167 166 166 167 166 164 159 155 150 147 147 148 150 150 150 150 150 150 150 150 151 152 153 152 151 149 147 146 145 142 139 137 130 122 116 116 113 112 111 104 83 354 316 296 289 282 278 277 276 277 278 279 279 280 282 285 288 290 292 292 293 293 294 294 295 296 298 299 299
159 160 161 160 158 153 147 144 141 141 143 146 146 146 145 145 145 144 142 141 142 143 144 145 142 138 135 131 127 124 124 128 128 127 127 132 139 146 163 202 245 262 269 270 272 274 276 277 278 279 279 280 281 284 287 290 292 293 294 294 295 296 297 299 300 301 302 302 302
155 157 157 155 151 147 143 141 141 141 143 145 145 145 146 145 143 141 138 136 136 134 130 126 122 118 116 116 116 117 121 126 131 136 141 152 168 190 214 239 254 266 271 275 278 280 280 281 281 281 282 284 286 289 291 293 294 295 295 296 297 300 302 305 306 306 305 304 303
150 152 152 150 147 144 142 141 142 142 143 143 144 145 146 143 140 137 132 128 122 115 109 106 106 107 109 113 116 119 123 127 134 143 157 181 207 232 252 270 281 285 286 286 285 284 283 283 284 285 287 289 292 294 295 296 297 298 300 302 305 307 309 310 310 309 308 306 305
148 150 150 147 142 139 138 139 139 140 140 141 140 140 138 135 130 124 117 111 105 102 101 103 105 109 113 117 120 124 129 135 145 168 208 243 261 275 285 292 291 289 287 287 286 285 285 287 288 290 293 295 297 298 300 303 305 307 310 311 313 314 314 313 312 310 309 308 306
145 147 146 143 138 134 131 132 134 135 135 134 131 127 124 120 116 111 105 102 101 103 106 111 114 119 121 124 126 130 136 146 175 230 261 276 286 291 292 290 288 287 288 289 289 289 290 292 294 296 298 301 303 306 309 312 314 316 317 317 316 315 314 313 313 312 311 310 310
133 134 134 133 130 125 123 123 125 126 125 124 121 117 112 109 106 105 105 106 110 115 120 124 126 127 127 128 130 133 137 149 236 280 292 297 302 304 301 297 296 297 297 297 296 296 296 298 300 303 305 308 311 313 316 317 318 319 318 317 316 314 314 314 314 315 316 318 320
120 119 119 120 118 115 112 113 114 115 116 115 113 110 107 107 108 111 115 119 123 126 128 128 127 126 126 129 132 137 139 155 295 308 310 311 311 311 308 306 308 308 304 298 298 299 300 303 307 311 314 316 318 319 319 320 320 319 318 318 317 318 319 319 321 324 328 334 338
111 109 109 110 109 106 105 106 107 109 109 109 108 108 109 112 116 120 123 125 127 128 129 127 124 124 128 134 140 152 171 206 267 297 305 307 309 310 310 311 316 310 299 295 298 302 307 311 318 322 324 324 325 324 324 325 325 325 325 326 328 330 332 336 341 345 349 350 352
107 106 105 105 105 104 105 106 107 108 108 108 109 110 113 117 121 123 126 127 129 129 127 123 121 127 134 142 150 164 175 182 198 228 266 279 282 273 275 13 21 327 305 308 316 321 324 328 332 334 334 334 334 335 336 336 337 339 341 343 345 347 350 351 352 353 350 347 345
106 106 106 106 107 108 108 109 109 110 109 109 111 113 116 120 122 125 126 128 127 123 116 112 115 122 128 129 132 135 130 125 121 123 123 141 158 166 145 123 109 68 334 335 342 341 338 337 339 341 343 344 347 349 350 351 351 352 353 353 353 351 349 346 344 341 340 339 337
103 104 106 107 109 109 110 111 110 109 108 109 111 114 117 120 122 122 120 115 105 98 95 96 99 101 98 94 90 85 80 75 79 81 90 100 134 169 158 139 128 106 343 337 348 347 343 342 345 349 354 358 360 0 360 358 357 355 353 351 348 345 342 339 337 336 336 336 337
97 99 101 103 103 104 105 105 104 103 103 105 108 110 112 113 111 108 103 94 88 87 87 88 87 87 84 80 77 71 64 55 50 56 65 89 178 217 196 166 133 31 350 348 355 356 355 355 357 0 4 6 6 4 1 357 353 349 346 343 341 339 338 336 334 334 335 337 339
89 90 92 93 93 94 94 94 93 93 94 97 99 100 99 97 97 96 94 92 92 93 96 97 95 95 91 88 84 81 77 61 80 122 157 171 203 227 216 180 80 48 28 14 13 12 10 10 7 6 6 6 4 1 356 350 345 340 337 334 334 334 335 334 332 333 334 337 340
84 84 86 87 88 88 89 89 89 90 90 91 92 92 93 94 97 99 99 102 105 112 117 120 121 120 121 123 124 123 123 134 151 164 170 180 191 200 185 134 90 74 55 28 18 18 17 13 8 3 2 1 358 354 348 341 334 329 326 326 327 330 331 332 331 332 334 338 342
86 85 86 88 90 90 90 90 90 90 92 92 92 94 97 103 109 113 113 114 119 125 127 125 123 122 120 118 120 122 123 127 139 148 156 163 160 161 145 121 102 90 75 43 15 9 9 6 360 357 355 353 351 345 339 332 325 322 322 323 327 330 333 333 333 335 338 342 346
90 88 87 89 90 91 91 90 92 95 97 99 100 103 107 113 121 123 120 117 117 117 113 107 105 103 102 100 103 106 109 113 122 132 141 145 148 148 140 126 113 103 90 61 25 6 359 354 352 351 350 348 345 340 335 331 329 328 328 330 334 338 341 341 340 342 345 349 351
91 89 87 88 89 90 92 94 97 102 104 105 107 108 109 111 111 108 103 98 94 90 86 87 92 93 92 91 92 95 100 105 116 127 138 145 149 153 149 140 130 120 107 81 46 20 9 1 354 350 348 347 344 341 340 341 343 343 344 347 352 357 357 354 352 352 353 353 352
91 90 90 90 90 92 96 101 103 101 98 97 96 96 93 91 87 84 80 76 73 72 73 78 84 87 87 86 86 87 92 97 107 121 136 146 150 157 162 159 151 142 128 105 74 44 27 15 1 351 347 346 345 345 348 354 359 1 4 9 17 19 15 6 360 356 355 353 350
92 93 93 93 92 94 94 96 93 89 85 82 81 79 76 74 71 68 65 63 62 63 64 69 73 75 77 76 75 76 78 84 94 108 124 137 145 156 167 171 168 159 140 106 80 62 46 28 7 352 345 345 348 350 354 2 10 16 22 27 29 28 21 10 1 356 352 350 346
91 90 90 90 89 87 84 82 79 77 74 73 71 69 67 65 64 62 59 57 56 56 58 61 64 66 67 67 66 67 71 77 85 95 107 119 131 146 161 172 173 166 141 84 58 53 55 49 24 358 347 346 351 355 360 7 16 26 32 32 27 20 13 6 359 354 350 347 344
Height
1460 1461 1461 1462 1463 1464 1465 1465 1466 1466 1467 1468 1469 1470 1471 1472 1473 1474 1474 1475 1476 1476 1477 1478 1479 1480 1481 1481 1482 1482 1483 1483 1484 1485 1485 1486 1486 1487 1487 1487 1488 1489 1490 1490 1491 1491 1492 1492 1492 1493 1493 1494 1495 1496 1496 1497 1498 1499 1499 1500 1501 1501 1502 1502 1503 1503 1504 1504 1504
1459 1460 1460 1461 1462 1463 1464 1464 1465 1466 1466 1467 1468 1469 1470 1471 1472 1472 1473 1474 1475 1475 1476 1477 1478 1479 1479 1480 1481 1481 1481 1482 1482 1483 1484 1485 1485 1486 1486 1487 1487 1488 1489 1490 1490 1491 1491 1491 1491 1492 1492 1493 1494 1495 1496 1496 1497 1498 1498 1499 1500 1501 1501 1501 1502 1502 1502 1503 1503
1458 1458 1459 1460 1461 1461 1462 1463 1464 1465 1466 1466 1467 1468 1469 1470 1471 1471 1472 1473 1474 1475 1476 1476 1476 1477 1478 1479 1480 1480 1481 1481 1481 1482 1483 1484 1484 1485 1486 1486 1487 1487 1488 1488 1489 1490 1490 1490 1490 1491 1491 1492 1493 1494 1495 1496 1496 1497 1497 1498 1498 1499 1500 1500 1500 1501 1501 1501 1501
1456 1457 1458 1459 1460 1461 1461 1462 1464 1464 1465 1466 1467 1468 1469 1469 1470 1470 1471 1472 1473 1474 1475 1475 1476 1476 1477 1478 1478 1479 1480 1480 1481 1481 1482 1482 1483 1484 1485 1486 1486 1486 1487 1487 1488 1488 1488 1488 1489 1489 1490 1491 1492 1493 1494 1494 1495 1496 1496 1496 1497 1497 1498 1498 1498 1499 1499 1499 1499
1455 1456 1457 1458 1459 1460 1461 1462 1463 1463 1464 1465 1466 1467 1468 1468 1469 1469 1470 1471 1472 1473 1474 1474 1475 1475 1476 1476 1477 1478 1479 1479 1480 1480 1481 1481 1482 1483 1484 1484 1485 1485 1486 1486 1486 1486 1487 1487 1487 1488 1489 1490 1491 1492 1493 1493 1494 1494 1495 1495 1496 1496 1496 1496 1497 1497 1497 1497 1497
1455 1456 1457 1457 1458 1459 1461 1461 1461 1462 1463 1464 1466 1466 1466 1467 1468 1468 1469 1470 1471 1472 1473 1473 1474 1475 1475 1476 1476 1477 1478 1478 1479 1479 1480 1480 1481 1482 1483 1483 1484 1484 1484 1485 1485 1485 1486 1486 1487 1487 1488 1489 1490 1491 1491 1492 1493 1493 1493 1494 1494 1495 1495 1495 1495 1496 1496 1496 1496
1454 1455 1456 1457 1458 1458 1459 1460 1461 1461 1462 1463 1464 1465 1465 1466 1467 1467 1468 1469 1470 1471 1471 1472 1473 1474 1474 1475 1475 1476 1477 1477 1478 1478 1479 1479 1480 1481 1482 1482 1483 1483 1483 1484 1484 1485 1485 1486 1486 1487 1487 1488 1489 1490 1491 1491 1491 1492 1492 1493 1493 1493 1494 1494 1494 1494 1494 1494 1494
1454 1455 1456 1456 1457 1458 1458 1459 1460 1461 1461 1462 1463 1463 1464 1465 1466 1466 1467 1468 1469 1470 1471 1471 1472 1473 1473 1474 1475 1475 1476 1477 1477 1478 1478 1479 1480 1480 1481 1481 1482 1482 1482 1483 1483 1484 1484 1485 1485 1486 1486 1487 1488 1488 1489 1490 1490 1491 1491 1491 1492 1492 1493 1493 1493 1492 1492 1492 1491
1453 1454 1455 1456 1456 1457 1458 1459 1460 1460 1461 1461 1462 1462 1463 1464 1465 1465 1466 1467 1468 1468 1469 1470 1471 1472 1472 1473 1474 1474 1475 1476 1476 1477 1478 1478 1479 1479 1480 1481 1481 1481 1482 1483 1483 1483 1484 1484 1485 1485 1486 1486 1487 1488 1488 1489 1489 1490 1490 1491 1491 1491 1491 1491 1491 1491 1490 1490 1490
1453 1454 1454 1455 1456 1457 1458 1458 1459 1459 1460 1460 1461 1461 1462 1463 1464 1464 1465 1466 1466 1468 1469 1469 1470 1471 1472 1472 1473 1474 1475 1475 1476 1476 1477 1477 1478 1479 1479 1480 1480 1481 1481 1481 1482 1482 1483 1484 1484 1484 1485 1486 1486 1487 1487 1488 1488 1489 1489 1489 1490 1490 1489 1489 1489 1489 1489 1489 1490
1452 1453 1454 1455 1456 1456 1457 1457 1458 1458 1459 1459 1460 1460 1461 1462 1463 1463 1464 1465 1466 1467 1468 1469 1469 1470 1471 1472 1473 1473 1474 1475 1475 1476 1476 1477 1477 1478 1478 1479 1479 1480 1480 1480 1481 1481 1482 1483 1483 1484 1484 1485 1485 1486 1486 1487 1487 1488 1488 1488 1488 1488 1488 1489 1489 1489 1489 1489 1489
1451 1452 1453 1454 1455 1456 1456 1456 1457 1457 1458 1458 1459 1459 1460 1461 1461 1462 1463 1464 1465 1466 1467 1468 1468 1469 1470 1471 1472 1473 1474 1474 1475 1475 1476 1476 1476 1477 1478 1478 1478 1479 1479 1480 1480 1481 1481 1482 1482 1483 1484 1484 1485 1485 1486 1486 1486 1487 1487 1487 1487 1487 1488 1488 1488 1488 1488 1488 1488
1451 1452 1452 1453 1454 1455 1455 1456 1456 1456 1457 1457 1458 1458 1459 1460 1461 1461 1462 1463 1465 1466 1466 1467 1468 1469 1470 1471 1471 1472 1473 1474 1474 1475 1475 1476 1476 1477 1477 1477 1478 1478 1479 1479 1479 1480 1481 1481 1482 1482 1483 1484 1484 1485 1485 1485 1486 1486 1486 1486 1486 1487 1487 1487 1487 1487 1487 1487 1487
1450 1451 1452 1452 1453 1454 1454 1455 1455 1456 1456 1456 1457 1457 1458 1459 1460 1461 1462 1463 1464 1465 1466 1466 1467 1468 1469 1470 1471 1471 1472 1473 1474 1474 1475 1476 1476 1476 1477 1477 1477 1478 1478 1478 1479 1479 1480 1481 1481 1482 1483 1483 1484 1484 1484 1484 1484 1485 1485 1486 1486 1486 1486 1486 1486 1486 1486 1486 1486
1449 1450 1451 1451 1452 1453 1453 1454 1454 1455 1455 1456 1456 1456 1457 1459 1460 1461 1461 1462 1463 1464 1465 1466 1467 1468 1469 1469 1470 1471 1471 1472 1473 1474 1474 1475 1475 1476 1476 1477 1477 1478 1478 1478 1478 1479 1479 1480 1481 1482 1483 1483 1483 1483 1483 1483 1483 1484 1485 1485 1486 1486 1486 1486 1486 1486 1485 1485 1485
1449 1449 1450 1451 1451 1452 1453 1453 1453 1454 1454 1455 1455 1456 1457 1458 1459 1460 1461 1462 1463 1464 1465 1466 1466 1467 1468 1469 1470 1471 1471 1471 1472 1473 1473 1474 1474 1475 1476 1477 1477 1478 1478 1478 1478 1479 1479 1480 1481 1481 1482 1482 1483 1482 1482 1482 1483 1483 1484 1485 1485 1485 1485 1485 1485 1484 1484 1484 1484
1448 1449 1450 1450 1451 1451 1452 1452 1453 1453 1453 1453 1454 1455 1456 1457 1458 1459 1460 1461 1462 1463 1464 1465 1466 1466 1467 1468 1469 1470 1470 1471 1471 1472 1473 1473 1474 1475 1476 1476 1477 1477 1478 1478 1478 1478 1479 1479 1480 1480 1481 1481 1482 1482 1482 1482 1482 1483 1483 1483 1484 1484 1484 1483 1483 1483 1483 1483 1482
1448 1448 1449 1450 1451 1451 1451 1452 1452 1452 1452 1453 1454 1455 1456 1457 1457 1459 1460 1461 1461 1462 1463 1464 1465 1466 1467 1468 1469 1469 1470 1471 1471 1472 1472 1473 1474 1474 1475 1476 1476 1477 1477 1477 1477 1477 1478 1478 1479 1480 1480 1481 1481 1481 1481 1482 1482 1482 1482 1482 1482 1482 1482 1482 1482 1482 1481 1481 1481
1447 1448 1449 1450 1450 1451 1451 1451 1452 1452 1452 1453 1454 1455 1456 1457 1458 1459 1460 1460 1461 1462 1463 1463 1464 1466 1466 1467 1468 1469 1470 1470 1471 1471 1472 1472 1473 1474 1474 1475 1476 1476 1476 1476 1476 1477 1477 1478 1479 1480 1480 1481 1481 1481 1481 1481 1481 1481 1481 1481 1481 1481 1481 1481 1480 1480 1480 1480 1479
1447 1448 1449 1450 1450 1451 1451 1451 1452 1452 1452 1453 1454 1455 1456 1458 1459 1460 1460 1461 1461 1462 1462 1463 1464 1465 1466 1467 1468 1469 1469 1470 1471 1471 1471 1472 1473 1473 1474 1475 1475 1475 1476 1476 1476 1476 1477 1478 1479 1479 1480 1480 1480 1480 1480 1480 1480 1479 1479 1479 1479 1479 1479 1479 1479 1478 1478 1478 1477
1447 1448 1449 1450 1450 1451 1451 1452 1452 1452 1453 1454 1455 1456 1457 1458 1459 1460 1461 1461 1461 1462 1463 1463 1464 1465 1466 1467 1468 1468 1469 1470 1470 1471 1471 1472 1473 1473 1474 1474 1475 1475 1475 1476 1476 1476 1477 1478 1478 1479 1479 1479 1479 1479 1479 1478 1478 1478 1478 1478 1478 1478 1478 1477 1477 1476 1476 1476 1475
1448 1449 1449 1450 1450 1451 1452 1452 1453 1453 1453 1454 1456 1456 1457 1458 1459 1460 1461 1461 1461 1462 1463 1463 1464 1465 1465 1466 1467 1468 1469 1469 1470 1471 1471 1472 1472 1473 1474 1474 1474 1475 1475 1475 1476 1476 1476 1477 1477 1477 1478 1478 1478 1478 1477 1477 1477 1476 1477 1477 1477 1476 1476 1476 1475 1475 1474 1474 1473
1448 1449 1450 1450 1451 1451 1452 1453 1453 1454 1454 1455 1456 1456 1457 1458 1459 1460 1461 1461 1461 1462 1463 1463 1464 1464 1465 1466 1467 1468 1469 1470 1470 1471 1471 1472 1472 1473 1473 1474 1474 1474 1474 1475 1475 1475 1476 1476 1476 1476 1477 1477 1476 1476 1476 1476 1476 1476 1476 1476 1476 1475 1475 1474 1474 1473 1472 1472 1472
1449 1450 1450 1451 1451 1451 1452 1453 1453 1454 1455 1455 1456 1456 1456 1458 1459 1460 1461 1461 1461 1462 1463 1464 1464 1465 1466 1466 1467 1468 1469 1469 1470 1470 1471 1471 1472 1472 1472 1472 1473 1473 1473 1473 1474 1474 1475 1475 1475 1475 1476 1476 1475 1475 1475 1475 1475 1475 1475 1475 1474 1474 1473 1472 1472 1471 1471 1471 1471
1450 1451 1451 1451 1451 1452 1453 1453 1454 1454 1455 1456 1456 1456 1457 1458 1460 1461 1461 1461 1462 1463 1464 1465 1465 1466 1466 1467 1468 1468 1469 1469 1469 1470 1470 1471 1471 1471 1471 1471 1472 1472 1472 1473 1473 1473 1474 1474 1474 1474 1474 1474 1474 1474 1474 1474 1474 1474 1473 1473 1473 1472 1472 1471 1471 1470 1470 1470 1469
1451 1451 1452 1452 1453 1453 1453 1454 1455 1456 1456 1457 1457 1457 1458 1459 1460 1461 1461 1462 1463 1464 1465 1466 1466 1466 1467 1467 1468 1468 1468 1469 1469 1469 1470 1470 1471 1471 1471 1471 1471 1471 1472 1472 1472 1472 1473 1473 1473 1473 1473 1473 1473 1473 1473 1472 1472 1472 1472 1472 1471 1471 1471 1470 1469 1469 1469 1468 1468
1452 1453 1453 1454 1454 1454 1454 1455 1456 1456 1457 1458 1458 1459 1459 1460 1461 1461 1462 1463 1464 1465 1466 1466 1467 1467 1467 1468 1468 1468 1468 1468 1469 1469 1469 1470 1470 1470 1470 1470 1470 1471 1471 1471 1471 1471 1471 1472 1472 1472 1471 1471 1472 1472 1472 1471 1471 1471 1471 1471 1470 1470 1469 1469 1468 1468 1467 1467 1466
1453 1453 1454 1454 1455 1455 1456 1456 1457 1457 1458 1459 1459 1460 1460 1461 1462 1463 1463 1464 1465 1466 1466 1466 1467 1467 1467 1468 1468 1468 1468 1469 1469 1469 1469 1469 1469 1469 1469 1469 1469 1469 1470 1470 1471 1471 1471 1471 1471 1471 1471 1471 1471 1471 1471 1471 1471 1470 1470 1470 1469 1469 1468 1468 1467 1467 1466 1466 1466
1454 1454 1454 1455 1455 1456 1456 1457 1458 1458 1459 1459 1460 1461 1461 1462 1463 1463 1464 1465 1465 1466 1466 1466 1467 1467 1468 1468 1468 1469 1469 1469 1469 1469 1469 1469 1469 1469 1469 1469 1469 1469 1469 1470 1470 1470 1470 1470 1471 1471 1470 1470 1470 1470 1470 1470 1470 1469 1469 1468 1468 1467 1467 1467 1466 1466 1466 1465 1465
1455 1456 1456 1456 1456 1457 1458 1458 1459 1459 1460 1461 1461 1462 1462 1463 1464 1464 1465 1465 1466 1466 1466 1466 1467 1467 1468 1468 1468 1468 1469 1469 1469 1469 1469 1469 1469 1469 1469 1469 1468 1468 1469 1469 1469 1469 1469 1469 1469 1470 1470 1469 1469 1469 1469 1469 1468 1468 1467 1466 1466 1466 1466 1466 1465 1465 1465 1465 1464
1457 1457 1457 1458 1458 1458 1459 1460 1460 1461 1461 1461 1462 1463 1463 1464 1464 1465 1465 1465 1466 1466 1466 1466 1467 1467 1467 1468 1468 1468 1468 1468 1468 1469 1469 1469 1469 1469 1469 1469 1468 1468 1468 1469 1469 1469 1468 1468 1468 1468 1469 1468 1468 1468 1468 1467 1467 1466 1466 1466 1465 1465 1465 1465 1464 1464 1464 1464 1464
1458 1458 1459 1459 1459 1460 1460 1461 1461 1461 1462 1462 1463 1463 1464 1464 1464 1465 1465 1465 1465 1466 1466 1466 1466 1467 1467 1467 1467 1468 1468 1468 1468 1468 1468 1469 1469 1469 1469 1469 1469 1469 1469 1469 1469 1468 1468 1467 1468 1468 1468 1468 1468 1467 1467 1466 1466 1466 1465 1465 1465 1464 1464 1464 1464 1464 1463 1463 1463
1459 1460 1460 1460 1460 1460 1461 1461 1461 1462 1462 1463 1463 1464 1464 1464 1464 1464 1464 1465 1465 1465 1466 1466 1466 1466 1467 1467 1467 1467 1467 1467 1468 1468 1468 1468 1469 1469 1469 1469 1469 1469 1469 1468 1468 1468 1467 1467 1467 1467 1467 1467 1467 1467 1466 1466 1466 1465 1465 1465 1464 1464 1464 1464 1463 1463 1463 1462 1462
1460 1460 1461 1461 1461 1461 1461 1461 1462 1462 1463 1463 1463 1463 1464 1464 1464 1464 1464 1465 1465 1466 1466 1466 1466 1466 1467 1467 1467 1467 1467 1467 1468 1468 1468 1468 1469 1469 1469 1469 1469 1469 1469 1468 1468 1467 1467 1467 1467 1467 1467 1467 1467 1466 1466 1466 1465 1465 1465 1464 1464 1464 1464 1463 1463 1462 1462 1462 1461
1461 1461 1461 1461 1461 1461 1461 1462 1462 1463 1463 1463 1463 1463 1463 1464 1464 1464 1465 1465 1466 1466 1466 1466 1467 1467 1467 1467 1467 1467 1467 1467 1467 1468 1468 1468 1468 1469 1469 1469 1469 1470 1470 1469 1468 1468 1467 1467 1467 1467 1467 1467 1467 1466 1466 1466 1465 1465 1464 1464 1464 1464 1463 1463 1462 1462 1462 1461 1461
1462 1462 1462 1462 1462 1462 1462 1462 1463 1463 1463 1463 1463 1463 1464 1464 1464 1465 1465 1465 1466 1466 1466 1466 1467 1467 1467 1467 1467 1467 1467 1467 1467 1467 1468 1468 1468 1468 1469 1469 1470 1471 1471 1469 1468 1468 1468 1468 1467 1467 1467 1467 1466 1466 1466 1465 1465 1464 1464 1464 1464 1463 1463 1462 1462 1461 1461 1461 1460
1463 1463 1463 1463 1463 1463 1463 1463 1463 1463 1464 1464 1464 1464 1464 1464 1465 1465 1465 1466 1466 1466 1466 1466 1466 1466 1466 1467 1467 1467 1467 1467 1467 1467 1467 1467 1468 1468 1468 1469 1469 1471 1471 1470 1468 1468 1467 1467 1467 1467 1467 1466 1466 1466 1465 1465 1465 1464 1464 1464 1463 1463 1462 1461 1461 1461 1461 1460 1460
1463 1463 1463 1463 1463 1463 1463 1464 1464 1464 1464 1464 1464 1464 1465 1465 1465 1465 1465 1465 1465 1465 1466 1466 1466 1466 1466 1466 1466 1466 1466 1466 1466 1466 1467 1467 1467 1468 1468 1468 1469 1469 1470 1470 1469 1468 1468 1467 1467 1466 1466 1466 1466 1465 1465 1465 1464 1464 1463 1463 1463 1462 1461 1461 1461 1460 1460 1460 1459
1464 1464 1464 1464 1464 1464 1464 1464 1464 1464 1464 1464 1464 1464 1464 1464 1464 1464 1464 1465 1465 1465 1465 1466 1466 1466 1466 1466 1466 1466 1466 1466 1466 1466 1466 1467 1467 1467 1468 1468 1468 1468 1468 1469 1469 1469 1469 1468 1467 1466 1466 1466 1465 1465 1465 1464 1464 1463 1463 1462 1462 1462 1461 1461 1460 1460 1460 1459 1459
1465 1465 1465 1465 1465 1465 1465 1465 1464 1464 1464 1464 1464 1464 1464 1464 1464 1464 1464 1464 1464 1465 1465 1465 1466 1466 1466 1466 1466 1466 1466 1466 1466 1466 1466 1466 1467 1467 1467 1467 1467 1468 1468 1468 1469 1469 1469 1469 1468 1467 1466 1465 1465 1465 1464 1464 1463 1463 1462 1462 1462 1461 1461 1461 1460 1460 1459 1459 1458
1465 1465 1465 1465 1465 1465 1465 1464 1464 1464 1464 1464 1464 1464 1464 1464 1464 1464 1464 1464 1464 1464 1465 1465 1465 1465 1465 1466 1466 1466 1466 1466 1466 1466 1466 1466 1466 1467 1467 1467 1467 1468 1468 1468 1469 1469 1469 1469 1468 1467 1466 1465 1465 1464 1464 1463 1463 1462 1462 1462 1461 1461 1461 1460 1460 1459 1459 1458 1457